Regional Weather Roundup
Issued by NWS

Home | Current Version | Previous Version | Graphics & Text | Print | Product List | Glossary On
Versions: 1 2 3 4 5 6 7 8 9 10 11 12 13 14 15 16 17 18 19 20 21 22 23 24 25 26 27 28 29 30 31 32 33 34 35 36 37 38 39 40 41 42 43 44 45 46 47 48 49 50
000
ASUS44 KMEG 252100
RWRTN
TENNESSEE HOURLY STATE WEATHER ROUNDUP
NATIONAL WEATHER SERVICE MEMPHIS TN
400 PM CDT THU AUG 25 2016

TNZ002-004-019-021-049-052-054-088>092-252200-
WEST TENNESSEE

CITY           SKY/WX    TMP DP  RH WIND       PRES   REMARKS
MEMPHIS INTL   CLOUDY    92  73  53 E10       30.04F HX 100
NWS MEMPHIS      N/A     89 N/A N/A MISG        N/A
JACKSON        PTSUNNY   83  74  74 CALM      30.08F
DYERSBURG      PTSUNNY  N/A N/A N/A MISG        N/A
UNION CITY     SUNNY     88  75  66 W5        30.06F HX  97
PARIS          MOSUNNY   90  75  62 SW7       30.09F HX 100
LEXINGTON      SUNNY     86  72  62 CALM      30.08F HX  92
$$

TNZ008-025-027-028-033-062-065-066-252200-
NORTH MIDDLE TENNESSEE

CITY           SKY/WX    TMP DP  RH WIND       PRES   REMARKS
NASHVILLE      TSTM      83  72  69 NE14G26   30.13R
CLARKSVILLE    SUNNY     91  72  53 W9        30.09S HX  98
COOKEVILLE     MOSUNNY   93  75  55 CALM      30.12S HX 104
CROSSVILLE     CLOUDY    89  68  49 W7        30.18F HX  93
$$

TNZ061-075-076-078-094-096-097-252200-
SOUTH MIDDLE TENNESSEE

CITY           SKY/WX    TMP DP  RH WIND       PRES   REMARKS
TULLAHOMA      SUNNY     91  70  49 VRB3      30.13F HX  97
WINCHESTER     SUNNY     91  72  52 VRB3      30.12S HX  98
MCMINNVILLE    PTSUNNY   90  75  62 NW12      30.13S HX 100
COLUMBIA       PTSUNNY   95  75  52 VRB3      30.08F HX 107
SHELBYVILLE    PTSUNNY   90  75  62 NW12      30.12R HX 100
$$

TNZ017-018-042-046-047-252200-
NORTHEAST TENNESSEE

CITY           SKY/WX    TMP DP  RH WIND       PRES   REMARKS
TRI CITIES     MOSUNNY   88  69  53 CALM      30.15F HX  92
$$

TNZ012-013-036-069-073-074-252200-
CENTRAL EAST TENNESSEE

CITY           SKY/WX    TMP DP  RH WIND       PRES   REMARKS
KNOXVILLE      MOSUNNY   93  67  42 VRB6      30.10F HX  96
OAK RIDGE      PTSUNNY   90  72  55 NW5       30.13F HX  97
$$

TNZ083-085-099-252200-
SOUTHEAST TENNESSEE

CITY           SKY/WX    TMP DP  RH WIND       PRES   REMARKS
CHATTANOOGA    PTSUNNY   92  68  45 S9        30.10F HX  96
$$

SKY/WX REPORTED AS FAIR MEANS FEW OR NO CLOUDS BELOW
12 THOUSAND FEET.





USA.gov is the U.S. government's official web portal to all federal, state and local government web resources and services.